Back to Top

Language: 

My Weather Underground Personal Weather Station Historical Data with Graphs...

Delerius Weather Station Historical Data
Daily Summary for June 21, 2017 Units:  Metric    English   Both
« Previous Day
Next Day »
Daily Weekly Monthly Yearly Custom
  High: Low: Average:
Temperature: 28 °C 13.6 °C 20.5 °C
Dew Point: 20.7 °C 11.7 °C 16.1 °C
Humidity: 91 % 49 % 77 %
Wind Speed: 16.1 km/h 0 km/h 7.2 km/h
Wind Gust: 30.6 km/h - -
Wind:- - SE
Pressure: 1019.9 hPa 1008 hPa -
Precipitation: 0.51 mm    
Historical Graphs
 
 
Tabular Data for June 21, 2017
Time Temperature Dew Point Pressure Wind Wind Speed Wind Gust Humidity Rainfall Rate (Hourly) solar Conditions
00:01 15.1 °C 13.3 °C 1019.5 hPa ESE 4.8 km/h 9.7 km/h 89 % 0 mm 0 W/m2
00:06 15 °C 13.2 °C 1019.5 hPa ESE 6.4 km/h 14.5 km/h 89 % 0 mm 0 W/m2
00:11 14.9 °C 12.9 °C 1019.5 hPa ESE 8 km/h 20.9 km/h 88 % 0 mm 0 W/m2
00:16 14.9 °C 12.9 °C 1019.9 hPa ESE 8 km/h 20.9 km/h 88 % 0 mm 0 W/m2
00:21 14.9 °C 12.9 °C 1019.9 hPa ESE 6.4 km/h 12.9 km/h 88 % 0 mm 0 W/m2
00:26 14.9 °C 12.8 °C 1019.5 hPa ESE 8 km/h 14.5 km/h 87 % 0 mm 0 W/m2
00:31 14.9 °C 12.6 °C 1019.9 hPa ESE 9.7 km/h 14.5 km/h 86 % 0 mm 0 W/m2
00:36 14.9 °C 12.6 °C 1019.9 hPa ESE 9.7 km/h 14.5 km/h 86 % 0 mm 0 W/m2
00:41 14.9 °C 12.6 °C 1019.9 hPa ESE 8 km/h 14.5 km/h 86 % 0 mm 0 W/m2
00:46 14.8 °C 12.5 °C 1019.9 hPa ESE 8 km/h 14.5 km/h 86 % 0 mm 0 W/m2
00:51 14.8 °C 12.5 °C 1019.9 hPa ESE 8 km/h 14.5 km/h 86 % 0 mm 0 W/m2
00:56 14.8 °C 12.3 °C 1019.5 hPa ESE 9.7 km/h 16.1 km/h 85 % 0 mm 0 W/m2
01:01 14.8 °C 12.5 °C 1019.5 hPa ESE 9.7 km/h 16.1 km/h 86 % 0 mm 0 W/m2
01:06 14.8 °C 12.5 °C 1019.5 hPa ESE 8 km/h 16.1 km/h 86 % 0 mm 0 W/m2
01:11 14.8 °C 12.5 °C 1019.5 hPa SE 9.7 km/h 16.1 km/h 86 % 0 mm 0 W/m2
01:16 14.8 °C 12.5 °C 1019.5 hPa SE 9.7 km/h 16.1 km/h 86 % 0 mm 0 W/m2
01:21 14.8 °C 12.5 °C 1019.5 hPa SE 9.7 km/h 14.5 km/h 86 % 0 mm 0 W/m2
01:26 14.8 °C 12.5 °C 1019.5 hPa SE 6.4 km/h 14.5 km/h 86 % 0 mm 0 W/m2
01:31 14.8 °C 12.5 °C 1019.5 hPa SE 6.4 km/h 14.5 km/h 86 % 0 mm 0 W/m2
01:37 14.8 °C 12.5 °C 1019.5 hPa SE 8 km/h 14.5 km/h 86 % 0 mm 0 W/m2
01:42 14.7 °C 12.4 °C 1019.2 hPa SE 8 km/h 17.7 km/h 86 % 0 mm 0 W/m2
01:47 14.7 °C 12.4 °C 1019.2 hPa SE 8 km/h 17.7 km/h 86 % 0 mm 0 W/m2
01:52 14.7 °C 12.4 °C 1019.2 hPa SE 8 km/h 14.5 km/h 86 % 0 mm 0 W/m2
01:57 14.7 °C 12.4 °C 1019.2 hPa SE 8 km/h 14.5 km/h 86 % 0 mm 0 W/m2
02:02 14.6 °C 12.3 °C 1019.2 hPa ESE 8 km/h 14.5 km/h 86 % 0 mm 0 W/m2
02:07 14.6 °C 12.3 °C 1019.2 hPa ESE 6.4 km/h 12.9 km/h 86 % 0 mm 0 W/m2
02:12 14.6 °C 12.3 °C 1019.2 hPa ESE 6.4 km/h 12.9 km/h 86 % 0 mm 0 W/m2
02:17 14.6 °C 12.3 °C 1018.8 hPa ESE 6.4 km/h 12.9 km/h 86 % 0 mm 0 W/m2
02:22 14.6 °C 12.3 °C 1018.8 hPa ESE 6.4 km/h 12.9 km/h 86 % 0 mm 0 W/m2
02:27 14.6 °C 12.3 °C 1018.8 hPa ESE 4.8 km/h 12.9 km/h 86 % 0 mm 0 W/m2
02:32 14.6 °C 12.3 °C 1018.8 hPa ESE 6.4 km/h 12.9 km/h 86 % 0 mm 0 W/m2
02:37 14.6 °C 12.3 °C 1018.5 hPa ESE 6.4 km/h 14.5 km/h 86 % 0 mm 0 W/m2
02:42 14.6 °C 12.3 °C 1018.8 hPa ESE 6.4 km/h 14.5 km/h 86 % 0 mm 0 W/m2
02:48 14.6 °C 12.3 °C 1018.5 hPa ESE 6.4 km/h 12.9 km/h 86 % 0 mm 0 W/m2
02:53 14.6 °C 12.3 °C 1018.5 hPa ESE 8 km/h 14.5 km/h 86 % 0 mm 0 W/m2
02:58 14.6 °C 12.3 °C 1018.5 hPa ESE 9.7 km/h 14.5 km/h 86 % 0 mm 0 W/m2
03:03 14.6 °C 12.1 °C 1018.2 hPa ESE 9.7 km/h 16.1 km/h 85 % 0 mm 0 W/m2
03:08 14.5 °C 12 °C 1018.2 hPa ESE 9.7 km/h 16.1 km/h 85 % 0 mm 0 W/m2
03:13 14.4 °C 11.9 °C 1018.2 hPa ESE 11.3 km/h 16.1 km/h 85 % 0 mm 0 W/m2
03:18 14.4 °C 11.9 °C 1018.5 hPa SE 9.7 km/h 16.1 km/h 85 % 0 mm 0 W/m2
03:23 14.3 °C 12 °C 1018.5 hPa SE 8 km/h 14.5 km/h 86 % 0 mm 0 W/m2
03:28 14.3 °C 12 °C 1018.5 hPa SE 8 km/h 14.5 km/h 86 % 0 mm 0 W/m2
03:33 14.3 °C 12 °C 1018.5 hPa SE 8 km/h 14.5 km/h 86 % 0 mm 0 W/m2
03:38 14.3 °C 12 °C 1018.5 hPa SE 6.4 km/h 12.9 km/h 86 % 0 mm 0 W/m2
03:43 14.2 °C 11.9 °C 1018.5 hPa SE 6.4 km/h 14.5 km/h 86 % 0 mm 0 W/m2
03:48 14.2 °C 11.9 °C 1018.2 hPa SE 6.4 km/h 14.5 km/h 86 % 0 mm 0 W/m2
03:53 14.2 °C 11.9 °C 1018.2 hPa SE 6.4 km/h 14.5 km/h 86 % 0 mm 0 W/m2
03:58 14.1 °C 11.8 °C 1018.2 hPa ESE 8 km/h 12.9 km/h 86 % 0 mm 0 W/m2
04:03 14.1 °C 11.9 °C 1018.5 hPa ESE 6.4 km/h 12.9 km/h 87 % 0 mm 0 W/m2
04:08 14 °C 11.9 °C 1018.5 hPa ESE 4.8 km/h 11.3 km/h 87 % 0 mm 0 W/m2
04:13 14 °C 11.9 °C 1018.2 hPa ESE 3.2 km/h 11.3 km/h 87 % 0 mm 0 W/m2
04:18 14 °C 11.9 °C 1018.2 hPa ESE 3.2 km/h 8 km/h 87 % 0 mm 0 W/m2
04:23 13.9 °C 11.8 °C 1018.2 hPa ESE 3.2 km/h 8 km/h 87 % 0 mm 0 W/m2
04:28 13.8 °C 11.7 °C 1018.2 hPa ESE 3.2 km/h 9.7 km/h 87 % 0 mm 0 W/m2
04:33 13.8 °C 11.8 °C 1018.2 hPa ESE 6.4 km/h 11.3 km/h 88 % 0 mm 0 W/m2
04:38 13.7 °C 11.7 °C 1018.5 hPa ESE 4.8 km/h 11.3 km/h 88 % 0 mm 0 W/m2
04:43 13.7 °C 11.7 °C 1018.5 hPa ESE 3.2 km/h 9.7 km/h 88 % 0 mm 5 W/m2
04:48 13.6 °C 11.7 °C 1018.5 hPa ESE 3.2 km/h 8 km/h 88 % 0 mm 7 W/m2
04:53 13.6 °C 11.7 °C 1018.5 hPa ESE 1.6 km/h 8 km/h 88 % 0 mm 9 W/m2
04:58 13.6 °C 11.7 °C 1018.5 hPa SE 1.6 km/h 6.4 km/h 88 % 0 mm 11 W/m2
05:03 13.6 °C 11.8 °C 1018.5 hPa ESE 1.6 km/h 6.4 km/h 89 % 0 mm 12 W/m2
05:08 13.6 °C 11.8 °C 1018.5 hPa ESE 3.2 km/h 8 km/h 89 % 0 mm 16 W/m2
05:13 13.6 °C 11.8 °C 1018.5 hPa ESE 3.2 km/h 8 km/h 89 % 0 mm 18 W/m2
05:18 13.6 °C 11.8 °C 1018.5 hPa ESE 3.2 km/h 8 km/h 89 % 0 mm 19 W/m2
05:23 13.6 °C 11.8 °C 1018.5 hPa ESE 1.6 km/h 8 km/h 89 % 0 mm 19 W/m2
05:28 13.7 °C 11.9 °C 1018.5 hPa ESE 1.6 km/h 6.4 km/h 89 % 0 mm 23 W/m2
05:33 13.6 °C 11.8 °C 1018.5 hPa ESE 3.2 km/h 8 km/h 89 % 0 mm 28 W/m2
05:38 13.6 °C 11.8 °C 1018.5 hPa East 3.2 km/h 8 km/h 89 % 0 mm 32 W/m2
05:43 13.6 °C 11.8 °C 1018.5 hPa ESE 3.2 km/h 8 km/h 89 % 0 mm 35 W/m2
05:48 13.7 °C 11.9 °C 1018.5 hPa ESE 3.2 km/h 8 km/h 89 % 0 mm 33 W/m2
05:53 13.7 °C 11.9 °C 1018.5 hPa ESE 3.2 km/h 9.7 km/h 89 % 0 mm 35 W/m2
05:58 13.7 °C 11.9 °C 1018.5 hPa ESE 4.8 km/h 9.7 km/h 89 % 0 mm 35 W/m2
06:04 13.7 °C 11.9 °C 1018.2 hPa SE 6.4 km/h 11.3 km/h 89 % 0 mm 37 W/m2
06:09 13.7 °C 11.7 °C 1018.2 hPa SE 4.8 km/h 11.3 km/h 88 % 0 mm 47 W/m2
06:14 13.6 °C 11.7 °C 1018.2 hPa ESE 6.4 km/h 11.3 km/h 88 % 0 mm 58 W/m2
06:19 13.7 °C 11.9 °C 1018.2 hPa ESE 6.4 km/h 11.3 km/h 89 % 0 mm 60 W/m2
06:24 13.7 °C 11.9 °C 1017.8 hPa SE 6.4 km/h 11.3 km/h 89 % 0 mm 72 W/m2
06:29 13.7 °C 11.9 °C 1017.8 hPa SE 6.4 km/h 12.9 km/h 89 % 0 mm 69 W/m2
06:34 13.8 °C 12 °C 1017.8 hPa SE 6.4 km/h 12.9 km/h 89 % 0 mm 72 W/m2
06:39 13.9 °C 12.1 °C 1017.8 hPa SE 4.8 km/h 11.3 km/h 89 % 0 mm 79 W/m2
06:44 13.9 °C 11.9 °C 1017.8 hPa SE 6.4 km/h 11.3 km/h 88 % 0 mm 79 W/m2
06:49 14 °C 12.1 °C 1017.5 hPa SE 8 km/h 11.3 km/h 88 % 0 mm 84 W/m2
06:54 14.1 °C 12.2 °C 1017.5 hPa SSE 6.4 km/h 11.3 km/h 88 % 0 mm 100 W/m2
06:59 14.2 °C 12.2 °C 1017.5 hPa SSE 6.4 km/h 12.9 km/h 88 % 0 mm 107 W/m2
07:04 14.3 °C 12.3 °C 1017.5 hPa SE 8 km/h 14.5 km/h 88 % 0 mm 105 W/m2
07:09 14.4 °C 12.4 °C 1017.5 hPa SE 8 km/h 14.5 km/h 88 % 0 mm 105 W/m2
07:14 14.6 °C 12.4 °C 1017.2 hPa SE 8 km/h 14.5 km/h 87 % 0 mm 146 W/m2
07:19 14.7 °C 12.6 °C 1017.2 hPa SE 8 km/h 12.9 km/h 87 % 0 mm 209 W/m2
07:24 14.9 °C 12.6 °C 1017.2 hPa SE 8 km/h 12.9 km/h 86 % 0 mm 227 W/m2
07:29 15.2 °C 12.7 °C 1017.2 hPa SE 9.7 km/h 19.3 km/h 85 % 0 mm 260 W/m2
07:34 15.4 °C 12.9 °C 1016.8 hPa SE 9.7 km/h 19.3 km/h 85 % 0 mm 279 W/m2
07:39 15.6 °C 12.9 °C 1016.8 hPa SE 11.3 km/h 17.7 km/h 84 % 0 mm 325 W/m2
07:44 15.9 °C 13 °C 1016.5 hPa SE 12.9 km/h 24.1 km/h 83 % 0 mm 346 W/m2
07:49 16.1 °C 13 °C 1016.5 hPa SE 12.9 km/h 24.1 km/h 82 % 0 mm 381 W/m2
07:54 16.3 °C 13.2 °C 1016.5 hPa SE 11.3 km/h 19.3 km/h 82 % 0 mm 371 W/m2
07:59 16.5 °C 13.2 °C 1016.5 hPa SE 11.3 km/h 19.3 km/h 81 % 0 mm 141 W/m2
08:04 16.4 °C 13.1 °C 1016.5 hPa SE 11.3 km/h 19.3 km/h 81 % 0 mm 295 W/m2
08:09 16.4 °C 13.1 °C 1016.5 hPa SE 12.9 km/h 19.3 km/h 81 % 0 mm 427 W/m2
08:14 16.6 °C 13.3 °C 1016.5 hPa SE 12.9 km/h 19.3 km/h 81 % 0 mm 411 W/m2
08:19 16.7 °C 13.4 °C 1016.1 hPa SSE 11.3 km/h 19.3 km/h 81 % 0 mm 223 W/m2
08:24 16.9 °C 13.4 °C 1016.1 hPa SSE 11.3 km/h 22.5 km/h 80 % 0 mm 221 W/m2
08:29 16.9 °C 13.4 °C 1016.1 hPa SSE 12.9 km/h 22.5 km/h 80 % 0 mm 269 W/m2
08:34 16.8 °C 13.3 °C 1016.5 hPa SSE 14.5 km/h 20.9 km/h 80 % 0 mm 176 W/m2
08:39 16.9 °C 13.6 °C 1016.5 hPa SSE 12.9 km/h 20.9 km/h 81 % 0 mm 452 W/m2
08:44 17.2 °C 13.9 °C 1016.5 hPa SSE 9.7 km/h 20.9 km/h 81 % 0 mm 427 W/m2
08:50 17.4 °C 13.9 °C 1016.5 hPa SSE 9.7 km/h 20.9 km/h 80 % 0 mm 397 W/m2
08:55 17.7 °C 14 °C 1016.5 hPa SSE 9.7 km/h 20.9 km/h 79 % 0 mm 483 W/m2
09:00 17.9 °C 14 °C 1016.5 hPa SSE 8 km/h 14.5 km/h 78 % 0 mm 431 W/m2
09:05 18.1 °C 14 °C 1016.5 hPa SSE 8 km/h 14.5 km/h 77 % 0 mm 489 W/m2
09:10 18.3 °C 14.2 °C 1016.5 hPa SSE 6.4 km/h 14.5 km/h 77 % 0 mm 471 W/m2
09:15 18.6 °C 14.5 °C 1016.1 hPa SSE 4.8 km/h 12.9 km/h 77 % 0 mm 445 W/m2
09:20 18.8 °C 14.3 °C 1016.5 hPa SSE 4.8 km/h 11.3 km/h 75 % 0 mm 427 W/m2
09:25 19.1 °C 14.6 °C 1016.1 hPa South 3.2 km/h 9.7 km/h 75 % 0 mm 515 W/m2
09:30 19.2 °C 14.7 °C 1016.1 hPa SSE 4.8 km/h 14.5 km/h 75 % 0 mm 431 W/m2
09:35 19.4 °C 14.8 °C 1015.8 hPa SSE 8 km/h 16.1 km/h 75 % 0 mm 726 W/m2
09:40 19.7 °C 14.9 °C 1015.8 hPa SE 8 km/h 16.1 km/h 74 % 0 mm 439 W/m2
09:45 19.7 °C 14.9 °C 1015.8 hPa SE 8 km/h 14.5 km/h 74 % 0 mm 320 W/m2
09:50 19.6 °C 14.8 °C 1016.1 hPa SE 9.7 km/h 14.5 km/h 74 % 0 mm 272 W/m2
09:55 19.6 °C 14.8 °C 1015.8 hPa SE 8 km/h 14.5 km/h 74 % 0 mm 294 W/m2
10:00 19.7 °C 14.9 °C 1015.8 hPa SE 8 km/h 14.5 km/h 74 % 0 mm 373 W/m2
10:05 19.8 °C 15.1 °C 1016.1 hPa SE 8 km/h 14.5 km/h 74 % 0 mm 399 W/m2
10:10 19.9 °C 15.1 °C 1015.8 hPa SE 8 km/h 14.5 km/h 74 % 0 mm 336 W/m2
10:15 19.9 °C 15.1 °C 1015.8 hPa SE 9.7 km/h 16.1 km/h 74 % 0 mm 682 W/m2
10:20 20.2 °C 15.4 °C 1015.8 hPa SE 11.3 km/h 16.1 km/h 74 % 0 mm 650 W/m2
10:25 20.4 °C 15.4 °C 1015.8 hPa SSE 9.7 km/h 16.1 km/h 73 % 0 mm 717 W/m2
10:30 20.7 °C 15.9 °C 1015.5 hPa SE 8 km/h 17.7 km/h 74 % 0 mm 821 W/m2
10:35 21.2 °C 16.2 °C 1015.5 hPa SE 8 km/h 17.7 km/h 73 % 0 mm 849 W/m2
10:40 21.4 °C 15.9 °C 1015.5 hPa SE 9.7 km/h 16.1 km/h 71 % 0 mm 554 W/m2
10:45 21.3 °C 15.8 °C 1015.5 hPa SSE 11.3 km/h 20.9 km/h 71 % 0 mm 362 W/m2
10:51 21.3 °C 15.8 °C 1015.1 hPa SE 11.3 km/h 20.9 km/h 71 % 0 mm 577 W/m2
10:56 21.4 °C 16.2 °C 1015.1 hPa SE 11.3 km/h 19.3 km/h 72 % 0 mm 649 W/m2
11:01 21.7 °C 16.2 °C 1015.1 hPa SE 12.9 km/h 19.3 km/h 71 % 0 mm 508 W/m2
11:06 21.6 °C 16.3 °C 1015.1 hPa SE 11.3 km/h 17.7 km/h 72 % 0 mm 404 W/m2
11:11 21.7 °C 16.2 °C 1015.1 hPa SE 11.3 km/h 19.3 km/h 71 % 0 mm 675 W/m2
11:16 21.8 °C 16.3 °C 1015.1 hPa SE 11.3 km/h 19.3 km/h 71 % 0 mm 383 W/m2
11:21 22 °C 16.5 °C 1015.5 hPa SE 9.7 km/h 16.1 km/h 71 % 0 mm 582 W/m2
11:26 22.2 °C 16.7 °C 1015.5 hPa SE 6.4 km/h 12.9 km/h 71 % 0 mm 870 W/m2
11:31 22.7 °C 17.2 °C 1015.5 hPa SE 8 km/h 14.5 km/h 71 % 0 mm 835 W/m2
11:36 22.9 °C 16.9 °C 1015.5 hPa SSE 8 km/h 14.5 km/h 69 % 0 mm 497 W/m2
11:41 23.1 °C 16.9 °C 1015.5 hPa South 8 km/h 19.3 km/h 68 % 0 mm 413 W/m2
11:46 23.1 °C 16.9 °C 1015.5 hPa South 8 km/h 19.3 km/h 68 % 0 mm 431 W/m2
11:51 23.1 °C 16.9 °C 1015.1 hPa SSE 8 km/h 16.1 km/h 68 % 0 mm 383 W/m2
11:56 23.1 °C 16.9 °C 1015.1 hPa SE 8 km/h 17.7 km/h 68 % 0 mm 668 W/m2
12:01 23.2 °C 17.4 °C 1015.1 hPa SE 8 km/h 17.7 km/h 70 % 0 mm 490 W/m2
12:06 23.3 °C 17.1 °C 1015.1 hPa SSE 8 km/h 16.1 km/h 68 % 0 mm 712 W/m2
12:11 23.3 °C 17.3 °C 1015.1 hPa SSE 8 km/h 16.1 km/h 69 % 0 mm 643 W/m2
12:16 23.5 °C 17.3 °C 1015.1 hPa SSE 8 km/h 14.5 km/h 68 % 0 mm 466 W/m2
12:21 23.6 °C 17.3 °C 1015.1 hPa SSE 8 km/h 16.1 km/h 68 % 0 mm 784 W/m2
12:23 23.6 °C 17.3 °C 1015.1 hPa SSE 8 km/h 16.1 km/h 68 % 0 mm 668 W/m2
12:28 23.8 °C 17.6 °C 1015.1 hPa SSE 8 km/h 16.1 km/h 68 % 0 mm 441 W/m2
12:33 23.9 °C 17.6 °C 1015.1 hPa SSE 6.4 km/h 12.9 km/h 68 % 0 mm 415 W/m2
12:38 24 °C 17.5 °C 1015.1 hPa SSE 4.8 km/h 11.3 km/h 67 % 0 mm 434 W/m2
12:43 23.9 °C 17.4 °C 1015.1 hPa SSE 6.4 km/h 11.3 km/h 67 % 0 mm 276 W/m2
12:48 23.8 °C 17.3 °C 1014.8 hPa SSE 8 km/h 12.9 km/h 67 % 0 mm 327 W/m2
12:53 23.8 °C 17.6 °C 1014.8 hPa SSE 8 km/h 12.9 km/h 68 % 0 mm 369 W/m2
12:58 23.9 °C 17.6 °C 1015.1 hPa SE 6.4 km/h 11.3 km/h 68 % 0 mm 214 W/m2
13:03 23.9 °C 17.4 °C 1014.4 hPa SE 6.4 km/h 11.3 km/h 67 % 0 mm 128 W/m2
13:08 23.7 °C 17.4 °C 1013.8 hPa ESE 6.4 km/h 17.7 km/h 68 % 0 mm 176 W/m2
13:13 23.6 °C 17.8 °C 1013.8 hPa ESE 9.7 km/h 17.7 km/h 70 % 0 mm 241 W/m2
13:18 23.6 °C 17.8 °C 1013.8 hPa ESE 9.7 km/h 19.3 km/h 70 % 0 mm 302 W/m2
13:23 23.6 °C 17.8 °C 1013.4 hPa ESE 9.7 km/h 19.3 km/h 70 % 0 mm 374 W/m2
13:28 23.7 °C 17.9 °C 1013.4 hPa ESE 11.3 km/h 20.9 km/h 70 % 0 mm 462 W/m2
13:33 23.8 °C 18 °C 1013.1 hPa SE 12.9 km/h 24.1 km/h 70 % 0 mm 336 W/m2
13:38 23.8 °C 17.8 °C 1013.1 hPa SE 14.5 km/h 29 km/h 69 % 0 mm 253 W/m2
13:43 23.8 °C 17.8 °C 1013.1 hPa SE 16.1 km/h 29 km/h 69 % 0 mm 199 W/m2
13:48 23.7 °C 17.9 °C 1012.8 hPa SE 14.5 km/h 24.1 km/h 70 % 0 mm 241 W/m2
13:53 23.7 °C 17.9 °C 1012.8 hPa SSE 16.1 km/h 29 km/h 70 % 0 mm 188 W/m2
13:58 23.7 °C 18.1 °C 1012.8 hPa SSE 14.5 km/h 30.6 km/h 71 % 0 mm 294 W/m2
14:03 23.7 °C 18.1 °C 1012.4 hPa SSE 12.9 km/h 30.6 km/h 71 % 0 mm 283 W/m2
14:08 23.8 °C 18.2 °C 1012.4 hPa SE 12.9 km/h 22.5 km/h 71 % 0 mm 330 W/m2
14:13 24 °C 18.4 °C 1012.4 hPa SE 11.3 km/h 22.5 km/h 71 % 0 mm 541 W/m2
14:18 24.3 °C 18.2 °C 1012.4 hPa SE 11.3 km/h 24.1 km/h 69 % 0 mm 802 W/m2
14:23 24.6 °C 18.6 °C 1012.4 hPa SSE 11.3 km/h 24.1 km/h 69 % 0 mm 838 W/m2
14:28 25 °C 18.7 °C 1012.4 hPa SE 12.9 km/h 25.7 km/h 68 % 0 mm 786 W/m2
14:33 25.4 °C 18.8 °C 1012.4 hPa SE 12.9 km/h 25.7 km/h 67 % 0 mm 823 W/m2
14:38 25.8 °C 18.9 °C 1012.4 hPa SSE 12.9 km/h 20.9 km/h 66 % 0 mm 809 W/m2
14:41 26 °C 18.7 °C 1012.4 hPa SSE 11.3 km/h 20.9 km/h 64 % 0 mm 366 W/m2
14:44 26.1 °C 18.8 °C 1012.4 hPa SSE 11.3 km/h 19.3 km/h 64 % 0 mm 450 W/m2
14:50 26.3 °C 18.4 °C 1012.4 hPa SSE 11.3 km/h 20.9 km/h 62 % 0 mm 496 W/m2
15:00 26.3 °C 17.9 °C 1012.4 hPa SSE 12.9 km/h 22.5 km/h 60 % 0 mm 364 W/m2
15:05 26.3 °C 18.4 °C 1012.4 hPa SE 8 km/h 19.3 km/h 62 % 0 mm 443 W/m2
15:10 26.6 °C 18.4 °C 1012.4 hPa SE 4.8 km/h 12.9 km/h 61 % 0 mm 454 W/m2
15:15 26.8 °C 18.4 °C 1012.4 hPa SE 6.4 km/h 19.3 km/h 60 % 0 mm 635 W/m2
15:20 27 °C 18.3 °C 1012.1 hPa SE 9.7 km/h 19.3 km/h 59 % 0 mm 473 W/m2
15:25 27.2 °C 18.5 °C 1012.1 hPa SSE 8 km/h 16.1 km/h 59 % 0 mm 914 W/m2
15:30 27.4 °C 18.1 °C 1012.1 hPa SSE 9.7 km/h 19.3 km/h 57 % 0 mm 814 W/m2
15:35 27.5 °C 17.9 °C 1012.1 hPa SSE 11.3 km/h 19.3 km/h 56 % 0 mm 809 W/m2
15:40 27.8 °C 17.7 °C 1012.1 hPa SSE 9.7 km/h 16.1 km/h 54 % 0 mm 469 W/m2
15:45 28 °C 17.5 °C 1012.1 hPa SSE 11.3 km/h 17.7 km/h 53 % 0 mm 376 W/m2
15:50 27.9 °C 17.4 °C 1011.7 hPa SSE 11.3 km/h 17.7 km/h 53 % 0 mm 327 W/m2
15:55 27.8 °C 17.1 °C 1012.1 hPa SSE 9.7 km/h 17.7 km/h 52 % 0 mm 309 W/m2
16:00 27.7 °C 16 °C 1012.1 hPa SSE 11.3 km/h 24.1 km/h 49 % 0 mm 327 W/m2
16:05 27.7 °C 16 °C 1012.1 hPa SSE 12.9 km/h 24.1 km/h 49 % 0 mm 334 W/m2
16:10 27.7 °C 16.7 °C 1012.1 hPa SSE 11.3 km/h 16.1 km/h 51 % 0 mm 309 W/m2
16:15 27.6 °C 16.6 °C 1012.1 hPa South 11.3 km/h 19.3 km/h 51 % 0 mm 234 W/m2
16:20 27.6 °C 16.8 °C 1012.1 hPa South 11.3 km/h 19.3 km/h 52 % 0 mm 179 W/m2
16:25 27.4 °C 17 °C 1012.1 hPa SSE 11.3 km/h 19.3 km/h 53 % 0 mm 107 W/m2
16:30 27.3 °C 17.2 °C 1012.1 hPa SSE 9.7 km/h 16.1 km/h 54 % 0 mm 93 W/m2
16:31 27.3 °C 16.9 °C 1012.1 hPa SSE 9.7 km/h 16.1 km/h 53 % 0 mm 95 W/m2
16:36 27.1 °C 17.3 °C 1012.1 hPa South 9.7 km/h 16.1 km/h 55 % 0 mm 134 W/m2
16:41 27 °C 17.5 °C 1012.1 hPa South 9.7 km/h 17.7 km/h 56 % 0 mm 167 W/m2
16:46 26.9 °C 17.7 °C 1012.1 hPa SSE 11.3 km/h 20.9 km/h 57 % 0 mm 181 W/m2
16:51 26.7 °C 17.5 °C 1011.7 hPa SSE 12.9 km/h 24.1 km/h 57 % 0 mm 158 W/m2
16:56 26.6 °C 17.9 °C 1011.7 hPa SSE 11.3 km/h 24.1 km/h 59 % 0 mm 160 W/m2
17:01 26.6 °C 18.2 °C 1011.7 hPa SSE 9.7 km/h 19.3 km/h 60 % 0 mm 146 W/m2
17:06 26.5 °C 18.4 °C 1011.4 hPa SSE 9.7 km/h 19.3 km/h 61 % 0 mm 111 W/m2
17:11 26.4 °C 18.6 °C 1011.4 hPa South 9.7 km/h 19.3 km/h 62 % 0 mm 84 W/m2
17:16 26.3 °C 18.7 °C 1011.1 hPa South 8 km/h 16.1 km/h 63 % 0 mm 86 W/m2
17:21 26.1 °C 18.8 °C 1010.7 hPa SSE 11.3 km/h 22.5 km/h 64 % 0 mm 107 W/m2
17:26 25.8 °C 18.7 °C 1010.7 hPa SE 14.5 km/h 22.5 km/h 65 % 0 mm 146 W/m2
17:31 25.6 °C 18.8 °C 1010.4 hPa SE 14.5 km/h 22.5 km/h 66 % 0 mm 155 W/m2
17:36 25.5 °C 18.7 °C 1010 hPa SSE 14.5 km/h 29 km/h 66 % 0 mm 165 W/m2
17:41 25.4 °C 18.8 °C 1010 hPa SE 14.5 km/h 29 km/h 67 % 0 mm 178 W/m2
17:42 25.4 °C 19.1 °C 1010 hPa SE 14.5 km/h 29 km/h 68 % 0 mm 186 W/m2
17:47 25.5 °C 19.2 °C 1010.4 hPa SE 12.9 km/h 24.1 km/h 68 % 0 mm 352 W/m2
17:52 25.6 °C 19.3 °C 1010.7 hPa SE 12.9 km/h 24.1 km/h 68 % 0 mm 223 W/m2
17:57 25.7 °C 19.6 °C 1010.7 hPa SE 11.3 km/h 17.7 km/h 69 % 0 mm 454 W/m2
18:02 25.9 °C 19.6 °C 1010.4 hPa SSE 11.3 km/h 20.9 km/h 68 % 0 mm 338 W/m2
18:07 26.1 °C 19.7 °C 1010.4 hPa SSE 11.3 km/h 20.9 km/h 68 % 0 mm 450 W/m2
18:12 26.3 °C 19.7 °C 1010.4 hPa SSE 12.9 km/h 20.9 km/h 67 % 0 mm 373 W/m2
18:17 26.2 °C 19.6 °C 1010.4 hPa SSE 12.9 km/h 20.9 km/h 67 % 0 mm 116 W/m2
18:22 26.1 °C 19.5 °C 1010.4 hPa SSE 11.3 km/h 20.9 km/h 67 % 0 mm 113 W/m2
18:27 25.9 °C 19.3 °C 1010.4 hPa SSE 11.3 km/h 17.7 km/h 67 % 0 mm 114 W/m2
18:32 25.8 °C 19.4 °C 1010.4 hPa SSE 9.7 km/h 17.7 km/h 68 % 0 mm 134 W/m2
18:37 25.8 °C 19.4 °C 1010.4 hPa SSE 9.7 km/h 16.1 km/h 68 % 0 mm 353 W/m2
18:43 25.9 °C 19.6 °C 1010.7 hPa SSE 8 km/h 16.1 km/h 68 % 0 mm 181 W/m2
18:48 25.9 °C 19.6 °C 1010.4 hPa SSE 8 km/h 14.5 km/h 68 % 0 mm 132 W/m2
18:53 25.9 °C 19.6 °C 1010.4 hPa SE 8 km/h 14.5 km/h 68 % 0 mm 114 W/m2
18:58 25.9 °C 19.8 °C 1010.4 hPa SE 6.4 km/h 14.5 km/h 69 % 0 mm 113 W/m2
19:03 25.9 °C 19.8 °C 1010.4 hPa SE 4.8 km/h 11.3 km/h 69 % 0 mm 91 W/m2
19:08 25.8 °C 19.7 °C 1010.4 hPa SSE 4.8 km/h 9.7 km/h 69 % 0 mm 88 W/m2
19:13 25.8 °C 19.7 °C 1010.4 hPa SSE 6.4 km/h 9.7 km/h 69 % 0 mm 104 W/m2
19:18 25.7 °C 19.8 °C 1010.4 hPa SSE 4.8 km/h 9.7 km/h 70 % 0 mm 93 W/m2
19:23 25.7 °C 19.8 °C 1010.4 hPa SSE 4.8 km/h 9.7 km/h 70 % 0 mm 60 W/m2
19:28 25.8 °C 19.9 °C 1010.4 hPa SE 3.2 km/h 9.7 km/h 70 % 0 mm 46 W/m2
19:33 25.7 °C 19.8 °C 1010.7 hPa SSE 1.6 km/h 8 km/h 70 % 0 mm 33 W/m2
19:38 25.7 °C 19.8 °C 1010.7 hPa SSE 1.6 km/h 3.2 km/h 70 % 0 mm 18 W/m2
19:43 25.7 °C 19.8 °C 1010.7 hPa SSE 1.6 km/h 8 km/h 70 % 0 mm 12 W/m2
19:48 25.6 °C 19.9 °C 1010.4 hPa SSE 3.2 km/h 8 km/h 71 % 0 mm 12 W/m2
19:53 25.6 °C 20.2 °C 1010.4 hPa SSE 1.6 km/h 8 km/h 72 % 0 mm 14 W/m2
19:58 25.4 °C 20.2 °C 1010 hPa SSE 3.2 km/h 8 km/h 73 % 0 mm 19 W/m2
20:03 25.3 °C 20.1 °C 1009.4 hPa SE 4.8 km/h 12.9 km/h 73 % 0 mm 33 W/m2
20:08 25.2 °C 20.2 °C 1009.4 hPa SE 9.7 km/h 16.1 km/h 74 % 0 mm 53 W/m2
20:13 25 °C 20.3 °C 1009.4 hPa SE 11.3 km/h 16.1 km/h 75 % 0 mm 56 W/m2
20:18 24.9 °C 20.4 °C 1009.4 hPa SE 8 km/h 14.5 km/h 76 % 0 mm 58 W/m2
20:23 24.8 °C 20.3 °C 1009.4 hPa SE 4.8 km/h 14.5 km/h 76 % 0 mm 70 W/m2
20:28 24.8 °C 20.3 °C 1009.4 hPa ESE 3.2 km/h 11.3 km/h 76 % 0 mm 67 W/m2
20:33 24.8 °C 20.3 °C 1009.4 hPa SE 1.6 km/h 9.7 km/h 76 % 0 mm 56 W/m2
20:38 24.8 °C 20.7 °C 1009.4 hPa SSE 1.6 km/h 11.3 km/h 78 % 0.51 mm 44 W/m2
20:43 24.6 °C 20.7 °C 1009.4 hPa SSE 1.6 km/h 11.3 km/h 79 % 0.51 mm 35 W/m2
20:48 24.4 °C 20.5 °C 1009.4 hPa Calm   6.4 km/h 79 % 0.51 mm 30 W/m2
20:53 24.2 °C 20.6 °C 1009 hPa East 1.6 km/h 6.4 km/h 80 % 0.51 mm 25 W/m2
20:58 24 °C 20.6 °C 1009.4 hPa East 1.6 km/h 6.4 km/h 81 % 0.51 mm 19 W/m2
21:03 23.9 °C 20.6 °C 1009 hPa East 1.6 km/h 6.4 km/h 82 % 0.51 mm 14 W/m2
21:08 23.7 °C 20.7 °C 1009 hPa East 1.6 km/h 6.4 km/h 83 % 0.51 mm 9 W/m2
21:13 23.6 °C 20.6 °C 1009.4 hPa East 1.6 km/h 4.8 km/h 83 % 0.51 mm 7 W/m2
21:18 23.5 °C 20.4 °C 1009.4 hPa East 1.6 km/h 3.2 km/h 83 % 0.51 mm 9 W/m2
21:24 23.4 °C 20.6 °C 1009 hPa East 1.6 km/h 6.4 km/h 84 % 0.51 mm 12 W/m2
21:29 23.3 °C 20.4 °C 1009.4 hPa East 1.6 km/h 6.4 km/h 84 % 0.51 mm 12 W/m2
21:34 23.2 °C 20.3 °C 1009 hPa Calm   1.6 km/h 84 % 0.25 mm 7 W/m2
21:39 23.2 °C 20.6 °C 1009 hPa Calm   3.2 km/h 85 % 0 mm 5 W/m2
21:44 23.1 °C 20.4 °C 1009 hPa Calm   3.2 km/h 85 % 0 mm 0 W/m2
21:49 23 °C 20.6 °C 1009 hPa Calm   1.6 km/h 86 % 0 mm 0 W/m2
21:54 22.9 °C 20.4 °C 1009 hPa Calm     86 % 0 mm 0 W/m2
21:59 22.9 °C 20.4 °C 1009 hPa Calm     86 % 0 mm 0 W/m2
22:04 22.8 °C 20.5 °C 1009 hPa Calm     87 % 0 mm 0 W/m2
22:09 22.8 °C 20.5 °C 1009 hPa Calm     87 % 0 mm 0 W/m2
22:14 22.7 °C 20.4 °C 1009 hPa Calm   3.2 km/h 87 % 0 mm 0 W/m2
22:19 22.6 °C 20.5 °C 1009 hPa Calm   3.2 km/h 88 % 0 mm 0 W/m2
22:24 22.5 °C 20.4 °C 1009 hPa Calm   3.2 km/h 88 % 0 mm 0 W/m2
22:29 22.4 °C 20.3 °C 1008.7 hPa Calm   3.2 km/h 88 % 0 mm 0 W/m2
22:34 22.4 °C 20.3 °C 1008.7 hPa Calm   3.2 km/h 88 % 0 mm 0 W/m2
22:39 22.3 °C 20.4 °C 1008.7 hPa Calm   1.6 km/h 89 % 0 mm 0 W/m2
22:44 22.3 °C 20.4 °C 1008.7 hPa Calm   1.6 km/h 89 % 0 mm 0 W/m2
22:46 22.2 °C 20.3 °C 1008.7 hPa Calm   1.6 km/h 89 % 0 mm 0 W/m2
22:51 22.2 °C 20.3 °C 1008.7 hPa Calm     89 % 0 mm 0 W/m2
22:56 22.1 °C 20.2 °C 1008.7 hPa Calm     89 % 0 mm 0 W/m2
23:01 22 °C 20.1 °C 1008.7 hPa Calm     89 % 0 mm 0 W/m2
23:06 21.9 °C 20.2 °C 1008.7 hPa Calm   3.2 km/h 90 % 0 mm 0 W/m2
23:11 21.8 °C 20.1 °C 1008.4 hPa Calm   3.2 km/h 90 % 0 mm 0 W/m2
23:16 21.8 °C 20.1 °C 1008.4 hPa East 1.6 km/h 4.8 km/h 90 % 0 mm 0 W/m2
23:21 21.7 °C 20 °C 1008.4 hPa East 1.6 km/h 4.8 km/h 90 % 0 mm 0 W/m2
23:26 21.7 °C 20 °C 1008.4 hPa Calm   4.8 km/h 90 % 0 mm 0 W/m2
23:31 21.6 °C 19.9 °C 1008.4 hPa Calm     90 % 0 mm 0 W/m2
23:36 21.5 °C 19.9 °C 1008.4 hPa Calm   3.2 km/h 91 % 0 mm 0 W/m2
23:41 21.5 °C 19.9 °C 1008 hPa Calm   3.2 km/h 91 % 0 mm 0 W/m2
23:46 21.4 °C 19.9 °C 1008 hPa East 1.6 km/h 8 km/h 91 % 0 mm 0 W/m2
23:51 21.4 °C 19.9 °C 1008 hPa East 3.2 km/h 8 km/h 91 % 0 mm 0 W/m2
23:56 21.4 °C 19.9 °C 1008 hPa East 3.2 km/h 6.4 km/h 91 % 0 mm 0 W/m2
Delerius-Weather
Compliments of Weather Underground - 2.25 mb

Data updates at regular intervals.